When you browse on this site, cookies collect data to enhance your experience and personalize the content and advertising you see.
Visit our Privacy Policy to learn more. By continuing to use the site, you agree to this use of cookies and data.

Stündliche Wetter Aalsmeer

Heute, 26 September, Samstag

Zeit Temperatur Niederschläge Wind Luftdruck Luftfeuchtigkeit
00:00 +10°C° 0 mm 5 m/S 746 mmHg 90%
01:00 +10°C° 0.1 mm 5 m/S 746 mmHg 88%
02:00 +10°C° 0.1 mm 5 m/S 746 mmHg 85%
03:00 +10°C° 0.1 mm 6 m/S 747 mmHg 83%
04:00 +10°C° 0.2 mm 5 m/S 747 mmHg 84%
05:00 +10°C° 0.2 mm 4 m/S 748 mmHg 85%
06:00 +10°C° 0.2 mm 4 m/S 748 mmHg 86%
07:00 +11°C° 0.1 mm 3 m/S 749 mmHg 80%
08:00 +13°C° 0.1 mm 3 m/S 749 mmHg 74%
09:00 +14°C° 0.1 mm 3 m/S 749 mmHg 68%
10:00 +16°C° 0.1 mm 3 m/S 750 mmHg 64%
11:00 +17°C° 0.1 mm 4 m/S 750 mmHg 59%
12:00 +17°C° 0.1 mm 4 m/S 750 mmHg 55%
13:00 +17°C° 0.1 mm 4 m/S 750 mmHg 57%
14:00 +17°C° 0.1 mm 4 m/S 750 mmHg 60%
15:00 +17°C° 0.1 mm 4 m/S 751 mmHg 62%
16:00 +15°C° 0.2 mm 5 m/S 751 mmHg 68%
17:00 +14°C° 0.2 mm 5 m/S 751 mmHg 73%
18:00 +14°C° 0.2 mm 5 m/S 751 mmHg 79%
19:00 +14°C° 1.1 mm 6 m/S 751 mmHg 81%
20:00 +14°C° 1.1 mm 7 m/S 751 mmHg 82%
21:00 +13°C° 1.1 mm 8 m/S 751 mmHg 84%
22:00 +13°C° 0.7 mm 9 m/S 750 mmHg 86%
23:00 +13°C° 0.7 mm 9 m/S 749 mmHg 87%

Morgen, 27 September, Sonntag

Zeit Temperatur Niederschläge Wind Luftdruck Luftfeuchtigkeit
00:00 +13°C° 0.7 mm 9 m/S 749 mmHg 88%
01:00 +15°C° 0.8 mm 9 m/S 748 mmHg 89%
02:00 +14°C° 0.8 mm 10 m/S 748 mmHg 90%
03:00 +16°C° 0.8 mm 10 m/S 748 mmHg 91%
04:00 +16°C° 0.4 mm 9 m/S 748 mmHg 91%
05:00 +16°C° 0.4 mm 8 m/S 749 mmHg 90%
06:00 +16°C° 0.4 mm 6 m/S 749 mmHg 90%
07:00 +16°C° 0 mm 6 m/S 750 mmHg 87%
08:00 +16°C° 0 mm 6 m/S 751 mmHg 84%
09:00 +15°C° 0 mm 5 m/S 752 mmHg 81%
10:00 +16°C° 0 mm 5 m/S 752 mmHg 79%
11:00 +17°C° 0 mm 4 m/S 753 mmHg 76%
12:00 +17°C° 0 mm 4 m/S 753 mmHg 73%
13:00 +17°C° 0 mm 3 m/S 753 mmHg 74%
14:00 +17°C° 0 mm 3 m/S 754 mmHg 74%
15:00 +17°C° 0 mm 2 m/S 754 mmHg 75%
16:00 +16°C° 0 mm 2 m/S 754 mmHg 77%
17:00 +16°C° 0 mm 2 m/S 754 mmHg 78%
18:00 +16°C° 0 mm 2 m/S 755 mmHg 80%
19:00 +16°C° 0 mm 2 m/S 755 mmHg 82%
20:00 +16°C° 0 mm 2 m/S 755 mmHg 84%
21:00 +16°C° 0 mm 2 m/S 755 mmHg 87%
22:00 +16°C° 0.1 mm 2 m/S 755 mmHg 89%
23:00 +16°C° 0.1 mm 3 m/S 755 mmHg 92%

übermorgen, 28 September, Montag

Zeit Temperatur Niederschläge Wind Luftdruck Luftfeuchtigkeit
00:00 +17°C° 0.1 mm 3 m/S 755 mmHg 94%
01:00 +17°C° 0.1 mm 3 m/S 755 mmHg 95%
02:00 +17°C° 0.1 mm 3 m/S 755 mmHg 96%
03:00 +17°C° 0.1 mm 3 m/S 755 mmHg 97%
04:00 +17°C° 0 mm 3 m/S 755 mmHg 97%
05:00 +17°C° 0 mm 3 m/S 756 mmHg 97%
06:00 +16°C° 0 mm 3 m/S 756 mmHg 97%
07:00 +17°C° 0 mm 3 m/S 756 mmHg 93%
08:00 +18°C° 0 mm 3 m/S 756 mmHg 90%
09:00 +18°C° 0 mm 2 m/S 756 mmHg 87%
10:00 +18°C° 0 mm 3 m/S 756 mmHg 85%
11:00 +19°C° 0 mm 3 m/S 756 mmHg 84%
12:00 +19°C° 0 mm 3 m/S 756 mmHg 83%
13:00 +19°C° 0.1 mm 3 m/S 756 mmHg 84%
14:00 +19°C° 0.1 mm 4 m/S 756 mmHg 85%
15:00 +19°C° 0.1 mm 4 m/S 756 mmHg 86%
16:00 +18°C° 0 mm 4 m/S 757 mmHg 87%
17:00 +18°C° 0 mm 4 m/S 757 mmHg 89%
18:00 +17°C° 0 mm 4 m/S 757 mmHg 91%
19:00 +17°C° 0 mm 4 m/S 758 mmHg 91%
20:00 +17°C° 0 mm 4 m/S 758 mmHg 90%
21:00 +17°C° 0 mm 4 m/S 758 mmHg 90%
22:00 +17°C° 0 mm 4 m/S 758 mmHg 90%
23:00 +17°C° 0 mm 4 m/S 759 mmHg 90%

29 September, Dienstag

Zeit Temperatur Niederschläge Wind Luftdruck Luftfeuchtigkeit
00:00 +17°C° 0 mm 4 m/S 759 mmHg 90%
01:00 +17°C° 0 mm 4 m/S 759 mmHg 87%
02:00 +17°C° 0 mm 4 m/S 759 mmHg 84%
03:00 +15°C° 0 mm 4 m/S 759 mmHg 81%
04:00 +15°C° 0 mm 4 m/S 759 mmHg 79%
05:00 +14°C° 0 mm 4 m/S 760 mmHg 77%
06:00 +13°C° 0 mm 3 m/S 760 mmHg 76%
07:00 +16°C° 0 mm 3 m/S 760 mmHg 72%
08:00 +17°C° 0 mm 3 m/S 760 mmHg 68%
09:00 +18°C° 0 mm 4 m/S 761 mmHg 65%
10:00 +19°C° 0 mm 4 m/S 761 mmHg 64%
11:00 +19°C° 0 mm 4 m/S 761 mmHg 63%
12:00 +20°C° 0 mm 4 m/S 761 mmHg 63%
13:00 +20°C° 0 mm 3 m/S 761 mmHg 64%
14:00 +20°C° 0 mm 3 m/S 761 mmHg 66%
15:00 +20°C° 0 mm 2 m/S 761 mmHg 68%
16:00 +18°C° 0 mm 2 m/S 761 mmHg 73%
17:00 +18°C° 0 mm 1 m/S 761 mmHg 79%
18:00 +16°C° 0 mm 1 m/S 761 mmHg 84%
19:00 +15°C° 0.1 mm 1 m/S 761 mmHg 85%
20:00 +15°C° 0.1 mm 1 m/S 761 mmHg 87%
21:00 +15°C° 0.1 mm 2 m/S 761 mmHg 88%
22:00 +14°C° 0 mm 2 m/S 761 mmHg 89%
23:00 +14°C° 0 mm 2 m/S 761 mmHg 89%

30 September, Mittwoch

Zeit Temperatur Niederschläge Wind Luftdruck Luftfeuchtigkeit
00:00 +13°C° 0 mm 3 m/S 761 mmHg 90%
01:00 +13°C° 0 mm 3 m/S 761 mmHg 88%
02:00 +12°C° 0 mm 3 m/S 761 mmHg 87%
03:00 +12°C° 0 mm 4 m/S 760 mmHg 86%
04:00 +12°C° 0 mm 3 m/S 760 mmHg 85%
05:00 +12°C° 0 mm 3 m/S 760 mmHg 85%
06:00 +12°C° 0 mm 3 m/S 760 mmHg 84%
07:00 +13°C° 0 mm 3 m/S 760 mmHg 80%
08:00 +14°C° 0 mm 3 m/S 760 mmHg 75%
09:00 +16°C° 0 mm 3 m/S 760 mmHg 71%
10:00 +17°C° 0 mm 3 m/S 760 mmHg 67%
11:00 +18°C° 0 mm 3 m/S 760 mmHg 62%
12:00 +18°C° 0 mm 3 m/S 760 mmHg 58%
13:00 +18°C° 0 mm 3 m/S 760 mmHg 58%
14:00 +18°C° 0 mm 3 m/S 759 mmHg 59%
15:00 +18°C° 0 mm 3 m/S 759 mmHg 59%
16:00 +17°C° 0 mm 2 m/S 759 mmHg 64%
17:00 +16°C° 0 mm 2 m/S 759 mmHg 68%
18:00 +15°C° 0 mm 2 m/S 759 mmHg 72%
19:00 +15°C° 0 mm 2 m/S 759 mmHg 74%
20:00 +15°C° 0 mm 2 m/S 758 mmHg 75%
21:00 +15°C° 0 mm 2 m/S 758 mmHg 77%
22:00 +15°C° 0 mm 2 m/S 757 mmHg 81%
23:00 +14°C° 0 mm 2 m/S 757 mmHg 86%

1 Oktober, Donnerstag

Zeit Temperatur Niederschläge Wind Luftdruck Luftfeuchtigkeit
00:00 +13°C° 0 mm 3 m/S 756 mmHg 91%
01:00 +13°C° 0 mm 3 m/S 756 mmHg 92%
02:00 +13°C° 0 mm 3 m/S 755 mmHg 93%
03:00 +13°C° 0 mm 3 m/S 754 mmHg 94%
04:00 +13°C° 0.1 mm 3 m/S 754 mmHg 94%
05:00 +13°C° 0.1 mm 4 m/S 754 mmHg 94%
06:00 +13°C° 0.1 mm 4 m/S 753 mmHg 94%
07:00 +14°C° 0.1 mm 4 m/S 753 mmHg 88%
08:00 +15°C° 0.1 mm 4 m/S 753 mmHg 82%
09:00 +16°C° 0.1 mm 5 m/S 752 mmHg 75%
10:00 +17°C° 0 mm 5 m/S 752 mmHg 70%
11:00 +20°C° 0 mm 5 m/S 751 mmHg 65%
12:00 +21°C° 0 mm 5 m/S 751 mmHg 60%
13:00 +21°C° 0.2 mm 5 m/S 750 mmHg 61%
14:00 +20°C° 0.2 mm 5 m/S 750 mmHg 63%
15:00 +20°C° 0.2 mm 5 m/S 749 mmHg 64%
16:00 +19°C° 0.1 mm 4 m/S 749 mmHg 68%
17:00 +18°C° 0.1 mm 3 m/S 749 mmHg 73%
18:00 +16°C° 0.1 mm 3 m/S 749 mmHg 78%
19:00 +16°C° 0 mm 3 m/S 748 mmHg 80%
20:00 +14°C° 0 mm 4 m/S 748 mmHg 82%
21:00 +14°C° 0 mm 4 m/S 747 mmHg 84%
22:00 +14°C° 0 mm 4 m/S 747 mmHg 84%
23:00 +14°C° 0 mm 5 m/S 746 mmHg 85%
Mehr zeigen